| time (UTC) | temp F | wind direction | speed MPH | gust MPH | rain 1hr in | rain 24hr in | rain mn in | humidity % | barometer mb |
| 20260831034006 | 88 | 190 | 4.0 | 10.0 | 0.00 | 0.00 | 0.00 | 29 | 1011.1 |
| 20260831033506 | 88 | 200 | 5.0 | 9.0 | 0.00 | 0.00 | 0.00 | 29 | 1011.0 |
| 20260831033007 | 88 | 190 | 5.0 | 9.0 | 0.00 | 0.00 | 0.00 | 28 | 1010.9 |
| 20260831032507 | 88 | 187 | 4.0 | 9.0 | 0.00 | 0.00 | 0.00 | 28 | 1010.8 |
| 20260831032007 | 88 | 194 | 3.0 | 9.0 | 0.00 | 0.00 | 0.00 | 28 | 1010.8 |
| 20260831031515 | 89 | 189 | 4.0 | 9.0 | 0.00 | 0.00 | 0.00 | 28 | 1010.8 |
| 20260831031006 | 89 | 196 | 3.0 | 8.0 | 0.00 | 0.00 | 0.00 | 28 | 1010.7 |
| 20260831030507 | 89 | 175 | 4.0 | 8.0 | 0.00 | 0.00 | 0.00 | 28 | 1010.6 |
| 20260831030006 | 89 | 191 | 3.0 | 8.0 | 0.00 | 0.00 | 0.00 | 28 | 1010.7 |
| 20260831025057 | 89 | 187 | 4.0 | 8.0 | 0.00 | 0.00 | 0.00 | 28 | 1010.6 |
| 20260831024604 | 89 | 191 | 3.0 | 6.0 | 0.00 | 0.00 | 0.00 | 28 | 1010.5 |
| 20260831024058 | 89 | 191 | 3.0 | 6.0 | 0.00 | 0.00 | 0.00 | 27 | 1010.4 |
| 20260831023557 | 90 | 194 | 3.0 | 6.0 | 0.00 | 0.00 | 0.00 | 27 | 1010.3 |
| 20260831023057 | 90 | 193 | 3.0 | 8.0 | 0.00 | 0.00 | 0.00 | 27 | 1010.0 |
| 20260831022556 | 90 | 187 | 4.0 | 10.0 | 0.00 | 0.00 | 0.00 | 27 | 1009.9 |
| 20260831022057 | 91 | 196 | 5.0 | 10.0 | 0.00 | 0.00 | 0.00 | 26 | 1010.0 |
| 20260831021602 | 91 | 191 | 4.0 | 9.0 | 0.00 | 0.00 | 0.00 | 26 | 1009.9 |
| 20260831021056 | 91 | 197 | 5.0 | 11.0 | 0.00 | 0.00 | 0.00 | 26 | 1009.8 |
| 20260831020556 | 91 | 188 | 7.0 | 11.0 | 0.00 | 0.00 | 0.00 | 25 | 1009.8 |
| 20260831020156 | 91 | 212 | 6.0 | 11.0 | 0.00 | 0.00 | 0.00 | 25 | 1009.7 |
| 20260831015058 | 92 | 191 | 5.0 | 10.0 | 0.00 | 0.00 | 0.00 | 25 | 1009.6 |
| 20260831014612 | 92 | 180 | 5.0 | 11.0 | 0.00 | 0.00 | 0.00 | 24 | 1009.6 |
| 20260831014058 | 92 | 184 | 5.0 | 11.0 | 0.00 | 0.00 | 0.00 | 24 | 1009.5 |
| 20260831013558 | 92 | 193 | 5.0 | 9.0 | 0.00 | 0.00 | 0.00 | 24 | 1009.5 |
| 20260831013059 | 93 | 190 | 4.0 | 13.0 | 0.00 | 0.00 | 0.00 | 23 | 1009.6 |
| 20260831012558 | 93 | 200 | 7.0 | 13.0 | 0.00 | 0.00 | 0.00 | 23 | 1009.5 |
| 20260831012059 | 93 | 193 | 5.0 | 11.0 | 0.00 | 0.00 | 0.00 | 23 | 1009.5 |
| 20260831011613 | 94 | 200 | 5.0 | 15.0 | 0.00 | 0.00 | 0.00 | 22 | 1009.4 |
| 20260831011057 | 94 | 176 | 9.0 | 15.0 | 0.00 | 0.00 | 0.00 | 22 | 1009.4 |
| 20260831010557 | 94 | 196 | 7.0 | 12.0 | 0.00 | 0.00 | 0.00 | 22 | 1009.4 |
| 20260831010058 | 94 | 184 | 5.0 | 12.0 | 0.00 | 0.00 | 0.00 | 22 | 1009.3 |
| 20260831005058 | 95 | 164 | 6.0 | 16.0 | 0.00 | 0.00 | 0.00 | 21 | 1009.2 |
| 20260831004558 | 95 | 183 | 7.0 | 16.0 | 0.00 | 0.00 | 0.00 | 21 | 1009.2 |
| 20260831004158 | 95 | 198 | 7.0 | 13.0 | 0.00 | 0.00 | 0.00 | 21 | 1009.1 |
| 20260831003557 | 95 | 203 | 8.0 | 14.0 | 0.00 | 0.00 | 0.00 | 22 | 1009.1 |
| 20260831003057 | 96 | 153 | 7.0 | 14.0 | 0.00 | 0.00 | 0.00 | 22 | 1009.1 |
| 20260831002600 | 96 | 159 | 6.0 | 14.0 | 0.00 | 0.00 | 0.00 | 22 | 1009.0 |
| 20260831002059 | 96 | 187 | 7.0 | 15.0 | 0.00 | 0.00 | 0.00 | 22 | 1009.0 |
| 20260831001604 | 96 | 164 | 6.0 | 14.0 | 0.00 | 0.00 | 0.00 | 22 | 1008.9 |
| 20260831001059 | 96 | 200 | 8.0 | 13.0 | 0.00 | 0.00 | 0.00 | 21 | 1008.9 |
| 20260831000557 | 97 | 191 | 5.0 | 12.0 | 0.00 | 0.00 | 0.00 | 19 | 1008.9 |
| 20260830235054 | 97 | 199 | 5.0 | 14.0 | 0.00 | 0.00 | 0.00 | 20 | 1008.9 |
| 20260830234553 | 97 | 187 | 6.0 | 13.0 | 0.00 | 0.00 | 0.00 | 20 | 1008.9 |
| 20260830234053 | 97 | 201 | 8.0 | 13.0 | 0.00 | 0.00 | 0.00 | 20 | 1008.9 |
| 20260830233553 | 97 | 214 | 6.0 | 13.0 | 0.00 | 0.00 | 0.00 | 20 | 1009.0 |
| 20260830233103 | 97 | 171 | 8.0 | 13.0 | 0.00 | 0.00 | 0.00 | 20 | 1009.0 |
| 20260830232556 | 97 | 193 | 8.0 | 16.0 | 0.00 | 0.00 | 0.00 | 21 | 1008.9 |
| 20260830232053 | 97 | 219 | 10.0 | 16.0 | 0.00 | 0.00 | 0.00 | 21 | 1009.0 |
| 20260830231558 | 98 | 198 | 10.0 | 15.0 | 0.00 | 0.00 | 0.00 | 21 | 1008.9 |
| 20260830231052 | 97 | 191 | 7.0 | 19.0 | 0.00 | 0.00 | 0.00 | 21 | 1009.0 |
| 20260830230552 | 97 | 190 | 12.0 | 19.0 | 0.00 | 0.00 | 0.00 | 21 | 1009.0 |
| 20260830230053 | 97 | 193 | 10.0 | 17.0 | 0.00 | 0.00 | 0.00 | 21 | 1008.9 |
| 20260830225056 | 98 | 191 | 7.0 | 13.0 | 0.00 | 0.00 | 0.00 | 20 | 1008.9 |
| 20260830224616 | 98 | 200 | 6.0 | 10.0 | 0.00 | 0.00 | 0.00 | 20 | 1008.9 |
| 20260830224056 | 98 | 210 | 7.0 | 12.0 | 0.00 | 0.00 | 0.00 | 19 | 1009.0 |
| 20260830223555 | 98 | 170 | 8.0 | 12.0 | 0.00 | 0.00 | 0.00 | 20 | 1009.0 |
| 20260830223057 | 98 | 154 | 6.0 | 15.0 | 0.00 | 0.00 | 0.00 | 19 | 1009.0 |
| 20260830222559 | 98 | 202 | 8.0 | 15.0 | 0.00 | 0.00 | 0.00 | 19 | 1009.0 |
| 20260830222054 | 98 | 165 | 9.0 | 14.0 | 0.00 | 0.00 | 0.00 | 19 | 1009.1 |
| 20260830221602 | 98 | 233 | 5.0 | 10.0 | 0.00 | 0.00 | 0.00 | 18 | 1009.2 |
| 20260830221053 | 98 | 258 | 6.0 | 13.0 | 0.00 | 0.00 | 0.00 | 17 | 1009.2 |
| 20260830220553 | 98 | 179 | 6.0 | 15.0 | 0.00 | 0.00 | 0.00 | 18 | 1009.3 |
| 20260830220057 | 98 | 213 | 11.0 | 15.0 | 0.00 | 0.00 | 0.00 | 17 | 1009.3 |
| 20260830215051 | 97 | 177 | 7.0 | 14.0 | 0.00 | 0.00 | 0.00 | 18 | 1009.4 |
| 20260830214556 | 98 | 152 | 8.0 | 14.0 | 0.00 | 0.00 | 0.00 | 18 | 1009.5 |
| 20260830214050 | 98 | 152 | 4.0 | 14.0 | 0.00 | 0.00 | 0.00 | 18 | 1009.4 |
| 20260830213549 | 98 | 192 | 9.0 | 18.0 | 0.00 | 0.00 | 0.00 | 18 | 1009.5 |
| 20260830213049 | 98 | 185 | 10.0 | 18.0 | 0.00 | 0.00 | 0.00 | 18 | 1009.7 |
| 20260830212548 | 98 | 181 | 5.0 | 14.0 | 0.00 | 0.00 | 0.00 | 18 | 1009.7 |
| 20260830212051 | 98 | 203 | 7.0 | 15.0 | 0.00 | 0.00 | 0.00 | 19 | 1009.8 |
| 20260830211547 | 97 | 150 | 6.0 | 15.0 | 0.00 | 0.00 | 0.00 | 18 | 1009.9 |
| 20260830211049 | 97 | 190 | 7.0 | 15.0 | 0.00 | 0.00 | 0.00 | 19 | 1009.8 |
| 20260830210546 | 97 | 174 | 9.0 | 17.0 | 0.00 | 0.00 | 0.00 | 18 | 1010.0 |
| 20260830210044 | 97 | 180 | 10.0 | 17.0 | 0.00 | 0.00 | 0.00 | 20 | 1010.0 |
| 20260830205049 | 96 | 164 | 7.0 | 19.0 | 0.00 | 0.00 | 0.00 | 20 | 1010.3 |
| 20260830204546 | 96 | 226 | 8.0 | 19.0 | 0.00 | 0.00 | 0.00 | 21 | 1010.3 |
| 20260830204047 | 97 | 215 | 7.0 | 12.0 | 0.00 | 0.00 | 0.00 | 22 | 1010.4 |
| 20260830203544 | 97 | 191 | 6.0 | 15.0 | 0.00 | 0.00 | 0.00 | 21 | 1010.5 |
| 20260830203043 | 97 | 178 | 7.0 | 18.0 | 0.00 | 0.00 | 0.00 | 20 | 1010.7 |
| 20260830202543 | 97 | 196 | 9.0 | 18.0 | 0.00 | 0.00 | 0.00 | 21 | 1010.8 |
| 20260830202041 | 97 | 154 | 7.0 | 14.0 | 0.00 | 0.00 | 0.00 | 20 | 1010.8 |
| 20260830201542 | 97 | 177 | 6.0 | 14.0 | 0.00 | 0.00 | 0.00 | 19 | 1011.0 |
| 20260830201039 | 96 | 252 | 5.0 | 17.0 | 0.00 | 0.00 | 0.00 | 20 | 1011.0 |
| 20260830200541 | 96 | 216 | 10.0 | 19.0 | 0.00 | 0.00 | 0.00 | 20 | 1011.2 |
| 20260830200038 | 96 | 198 | 7.0 | 19.0 | 0.00 | 0.00 | 0.00 | 22 | 1011.1 |
| 20260830195053 | 96 | 173 | 7.0 | 15.0 | 0.00 | 0.00 | 0.00 | 22 | 1011.4 |
| 20260830194549 | 95 | 164 | 8.0 | 15.0 | 0.00 | 0.00 | 0.00 | 21 | 1011.4 |
| 20260830194051 | 95 | 202 | 8.0 | 16.0 | 0.00 | 0.00 | 0.00 | 22 | 1011.5 |
| 20260830193546 | 95 | 189 | 9.0 | 16.0 | 0.00 | 0.00 | 0.00 | 23 | 1011.6 |
| 20260830193043 | 95 | 201 | 6.0 | 15.0 | 0.00 | 0.00 | 0.00 | 24 | 1011.7 |
| 20260830192542 | 94 | 198 | 3.0 | 15.0 | 0.00 | 0.00 | 0.00 | 25 | 1011.8 |
| 20260830192040 | 94 | 208 | 10.0 | 17.0 | 0.00 | 0.00 | 0.00 | 25 | 1011.8 |
| 20260830191540 | 94 | 213 | 9.0 | 17.0 | 0.00 | 0.00 | 0.00 | 24 | 1011.8 |
| 20260830191039 | 94 | 239 | 8.0 | 15.0 | 0.00 | 0.00 | 0.00 | 26 | 1011.8 |
| 20260830190538 | 94 | 231 | 7.0 | 16.0 | 0.00 | 0.00 | 0.00 | 25 | 1012.0 |
| 20260830190037 | 94 | 271 | 8.0 | 19.0 | 0.00 | 0.00 | 0.00 | 27 | 1011.9 |
| 20260830185024 | 93 | 214 | 7.0 | 15.0 | 0.00 | 0.00 | 0.00 | 28 | 1012.0 |
| 20260830184524 | 93 | 212 | 8.0 | 17.0 | 0.00 | 0.00 | 0.00 | 28 | 1012.1 |
| 20260830184023 | 93 | 227 | 11.0 | 18.0 | 0.00 | 0.00 | 0.00 | 28 | 1012.1 |
| 20260830183522 | 93 | 185 | 11.0 | 18.0 | 0.00 | 0.00 | 0.00 | 29 | 1012.1 |
| 20260830183020 | 92 | 225 | 7.0 | 16.0 | 0.00 | 0.00 | 0.00 | 30 | 1012.2 |
| 20260830182519 | 92 | 210 | 11.0 | 17.0 | 0.00 | 0.00 | 0.00 | 30 | 1012.5 |
| 20260830182018 | 92 | 214 | 11.0 | 18.0 | 0.00 | 0.00 | 0.00 | 31 | 1012.5 |
| 20260830181516 | 92 | 217 | 8.0 | 18.0 | 0.00 | 0.00 | 0.00 | 31 | 1012.6 |
| 20260830181015 | 92 | 196 | 8.0 | 19.0 | 0.00 | 0.00 | 0.00 | 30 | 1012.7 |
| 20260830180513 | 92 | 207 | 10.0 | 19.0 | 0.00 | 0.00 | 0.00 | 31 | 1012.9 |
| 20260830180013 | 92 | 223 | 10.0 | 17.0 | 0.00 | 0.00 | 0.00 | 30 | 1012.9 |
| 20260830175009 | 92 | 218 | 8.0 | 17.0 | 0.00 | 0.00 | 0.00 | 33 | 1013.0 |
| 20260830174510 | 91 | 210 | 11.0 | 17.0 | 0.00 | 0.00 | 0.00 | 34 | 1013.0 |
| 20260830174006 | 91 | 177 | 10.0 | 18.0 | 0.00 | 0.00 | 0.00 | 34 | 1013.1 |
| 20260830173506 | 91 | 205 | 10.0 | 19.0 | 0.00 | 0.00 | 0.00 | 34 | 1013.1 |
| 20260830173005 | 90 | 186 | 9.0 | 16.0 | 0.00 | 0.00 | 0.00 | 35 | 1013.2 |
| 20260830172509 | 90 | 207 | 10.0 | 19.0 | 0.00 | 0.00 | 0.00 | 35 | 1013.2 |
| 20260830172004 | 90 | 179 | 11.0 | 19.0 | 0.00 | 0.00 | 0.00 | 35 | 1013.3 |
| 20260830171504 | 90 | 194 | 9.0 | 16.0 | 0.00 | 0.00 | 0.00 | 36 | 1013.3 |
| 20260830171004 | 90 | 199 | 11.0 | 16.0 | 0.00 | 0.00 | 0.00 | 36 | 1013.5 |
| 20260830170502 | 89 | 186 | 9.0 | 16.0 | 0.00 | 0.00 | 0.00 | 36 | 1013.4 |
| 20260830170002 | 89 | 196 | 10.0 | 16.0 | 0.00 | 0.00 | 0.00 | 37 | 1013.4 |
| 20260830165159 | 88 | 205 | 11.0 | 17.0 | 0.00 | 0.00 | 0.00 | 38 | 1013.4 |
| 20260830164607 | 88 | 245 | 9.0 | 15.0 | 0.00 | 0.00 | 0.00 | 39 | 1013.4 |
| 20260830164057 | 88 | 208 | 8.0 | 18.0 | 0.00 | 0.00 | 0.00 | 40 | 1013.6 |
| 20260830163558 | 88 | 175 | 9.0 | 18.0 | 0.00 | 0.00 | 0.00 | 40 | 1013.7 |
| 20260830163059 | 88 | 208 | 9.0 | 16.0 | 0.00 | 0.00 | 0.00 | 40 | 1013.6 |
| 20260830162556 | 88 | 171 | 9.0 | 16.0 | 0.00 | 0.00 | 0.00 | 41 | 1013.5 |
| 20260830162057 | 87 | 199 | 7.0 | 14.0 | 0.00 | 0.00 | 0.00 | 43 | 1013.6 |
| 20260830161606 | 87 | 202 | 8.0 | 14.0 | 0.00 | 0.00 | 0.00 | 43 | 1013.6 |
| 20260830161052 | 86 | 198 | 8.0 | 13.0 | 0.00 | 0.00 | 0.00 | 43 | 1013.6 |
| 20260830160553 | 86 | 179 | 8.0 | 16.0 | 0.00 | 0.00 | 0.00 | 45 | 1013.7 |
| 20260830160051 | 86 | 198 | 10.0 | 16.0 | 0.00 | 0.00 | 0.00 | 45 | 1013.7 |
| 20260830155059 | 85 | 182 | 4.0 | 15.0 | 0.00 | 0.00 | 0.00 | 47 | 1013.7 |
| 20260830154558 | 85 | 184 | 11.0 | 15.0 | 0.00 | 0.00 | 0.00 | 46 | 1013.7 |
| 20260830154059 | 85 | 195 | 7.0 | 12.0 | 0.00 | 0.00 | 0.00 | 47 | 1013.7 |
| 20260830153600 | 84 | 162 | 5.0 | 13.0 | 0.00 | 0.00 | 0.00 | 48 | 1013.7 |
| 20260830153053 | 84 | 179 | 9.0 | 13.0 | 0.00 | 0.00 | 0.00 | 48 | 1013.8 |
| 20260830152552 | 83 | 189 | 6.0 | 10.0 | 0.00 | 0.00 | 0.00 | 50 | 1013.7 |
| 20260830152056 | 83 | 191 | 5.0 | 12.0 | 0.00 | 0.00 | 0.00 | 51 | 1013.9 |
| 20260830151552 | 83 | 189 | 5.0 | 12.0 | 0.00 | 0.00 | 0.00 | 51 | 1013.9 |
| 20260830151052 | 82 | 155 | 5.0 | 11.0 | 0.00 | 0.00 | 0.00 | 52 | 1013.9 |
| 20260830150552 | 82 | 154 | 6.0 | 13.0 | 0.00 | 0.00 | 0.00 | 52 | 1013.9 |
| 20260830150055 | 81 | 201 | 7.0 | 13.0 | 0.00 | 0.00 | 0.00 | 53 | 1013.8 |
| 20260830145043 | 81 | 212 | 7.0 | 15.0 | 0.00 | 0.00 | 0.00 | 53 | 1014.0 |
| 20260830144543 | 81 | 186 | 8.0 | 15.0 | 0.00 | 0.00 | 0.00 | 54 | 1014.0 |
| 20260830144045 | 81 | 148 | 6.0 | 11.0 | 0.00 | 0.00 | 0.00 | 54 | 1014.0 |
| 20260830143542 | 80 | 179 | 5.0 | 12.0 | 0.00 | 0.00 | 0.00 | 55 | 1014.0 |
| 20260830143101 | 80 | 190 | 7.0 | 15.0 | 0.00 | 0.00 | 0.00 | 55 | 1014.0 |
| 20260830142542 | 80 | 198 | 7.0 | 14.0 | 0.00 | 0.00 | 0.00 | 55 | 1014.0 |
| 20260830142042 | 80 | 168 | 6.0 | 16.0 | 0.00 | 0.00 | 0.00 | 56 | 1014.1 |
| 20260830141543 | 79 | 189 | 9.0 | 16.0 | 0.00 | 0.00 | 0.00 | 56 | 1014.1 |
| 20260830141044 | 79 | 173 | 8.0 | 14.0 | 0.00 | 0.00 | 0.00 | 56 | 1014.1 |
| 20260830140541 | 79 | 185 | 9.0 | 14.0 | 0.00 | 0.00 | 0.00 | 56 | 1014.1 |
| 20260830140047 | 79 | 200 | 7.0 | 12.0 | 0.00 | 0.00 | 0.00 | 57 | 1014.1 |
| 20260830135053 | 78 | 176 | 6.0 | 12.0 | 0.00 | 0.00 | 0.00 | 58 | 1013.9 |
| 20260830134553 | 78 | 145 | 4.0 | 11.0 | 0.00 | 0.00 | 0.00 | 58 | 1014.0 |
| 20260830134053 | 78 | 179 | 5.0 | 11.0 | 0.00 | 0.00 | 0.00 | 58 | 1014.0 |
| 20260830133552 | 78 | 161 | 5.0 | 11.0 | 0.00 | 0.00 | 0.00 | 58 | 1014.0 |
| 20260830133052 | 78 | 173 | 4.0 | 10.0 | 0.00 | 0.00 | 0.00 | 58 | 1013.9 |
| 20260830132552 | 78 | 176 | 3.0 | 8.0 | 0.00 | 0.00 | 0.00 | 59 | 1013.9 |
| 20260830132052 | 77 | 168 | 4.0 | 8.0 | 0.00 | 0.00 | 0.00 | 59 | 1013.8 |
| 20260830131551 | 77 | 158 | 3.0 | 7.0 | 0.00 | 0.00 | 0.00 | 59 | 1013.9 |
| 20260830131052 | 77 | 149 | 2.0 | 7.0 | 0.00 | 0.00 | 0.00 | 59 | 1013.8 |
| 20260830130552 | 77 | 150 | 3.0 | 6.0 | 0.00 | 0.00 | 0.00 | 59 | 1013.8 |
| 20260830125040 | 77 | 156 | 3.0 | 7.0 | 0.00 | 0.00 | 0.00 | 60 | 1013.6 |
| 20260830124539 | 77 | 162 | 3.0 | 8.0 | 0.00 | 0.00 | 0.00 | 59 | 1013.5 |
| 20260830124039 | 77 | 181 | 3.0 | 11.0 | 0.00 | 0.00 | 0.00 | 59 | 1013.4 |
| 20260830123538 | 77 | 187 | 6.0 | 11.0 | 0.00 | 0.00 | 0.00 | 59 | 1013.4 |
| 20260830123044 | 77 | 191 | 6.0 | 11.0 | 0.00 | 0.00 | 0.00 | 59 | 1013.4 |
| 20260830122538 | 77 | 189 | 4.0 | 8.0 | 0.00 | 0.00 | 0.00 | 59 | 1013.5 |
| 20260830122041 | 77 | 181 | 4.0 | 10.0 | 0.00 | 0.00 | 0.00 | 59 | 1013.4 |
| 20260830121537 | 77 | 197 | 5.0 | 10.0 | 0.00 | 0.00 | 0.00 | 59 | 1013.4 |
| 20260830121040 | 77 | 193 | 5.0 | 9.0 | 0.00 | 0.00 | 0.00 | 59 | 1013.3 |
| 20260830120535 | 77 | 193 | 4.0 | 9.0 | 0.00 | 0.00 | 0.00 | 58 | 1013.2 |
| 20260830120035 | 77 | 177 | 4.0 | 9.0 | 0.00 | 0.00 | 0.00 | 58 | 1013.2 |
| 20260830115036 | 77 | 157 | 4.0 | 8.0 | 0.00 | 0.00 | 0.00 | 58 | 1013.1 |
| 20260830114533 | 77 | 210 | 4.0 | 8.0 | 0.00 | 0.00 | 0.00 | 57 | 1013.1 |
| 20260830114033 | 77 | 174 | 4.0 | 8.0 | 0.00 | 0.00 | 0.00 | 57 | 1013.1 |
| 20260830113532 | 77 | 183 | 4.0 | 8.0 | 0.00 | 0.00 | 0.00 | 57 | 1013.0 |
| 20260830113034 | 77 | 187 | 4.0 | 8.0 | 0.00 | 0.00 | 0.00 | 56 | 1013.0 |
| 20260830112532 | 77 | 180 | 4.0 | 8.0 | 0.00 | 0.00 | 0.00 | 56 | 1013.0 |
| 20260830112030 | 78 | 179 | 4.0 | 8.0 | 0.00 | 0.00 | 0.00 | 55 | 1013.0 |
| 20260830111530 | 78 | 193 | 3.0 | 9.0 | 0.00 | 0.00 | 0.00 | 55 | 1013.0 |
| 20260830111030 | 78 | 168 | 4.0 | 9.0 | 0.00 | 0.00 | 0.00 | 55 | 1013.1 |
| 20260830110530 | 78 | 187 | 3.0 | 9.0 | 0.00 | 0.00 | 0.00 | 54 | 1013.0 |
| 20260830110030 | 78 | 191 | 4.0 | 9.0 | 0.00 | 0.00 | 0.00 | 54 | 1012.9 |
| 20260830105028 | 78 | 183 | 3.0 | 7.0 | 0.00 | 0.00 | 0.00 | 53 | 1013.0 |
| 20260830104528 | 78 | 183 | 3.0 | 7.0 | 0.00 | 0.00 | 0.00 | 53 | 1013.0 |
| 20260830104027 | 79 | 187 | 3.0 | 7.0 | 0.00 | 0.00 | 0.00 | 52 | 1012.9 |
| 20260830103531 | 79 | 199 | 3.0 | 9.0 | 0.00 | 0.00 | 0.00 | 52 | 1012.9 |
| 20260830103027 | 79 | 183 | 3.0 | 6.0 | 0.00 | 0.00 | 0.00 | 51 | 1012.9 |
| 20260830102526 | 79 | 184 | 3.0 | 7.0 | 0.00 | 0.00 | 0.00 | 51 | 1012.9 |
| 20260830102025 | 79 | 175 | 4.0 | 10.0 | 0.00 | 0.00 | 0.00 | 50 | 1012.8 |
| 20260830101524 | 79 | 168 | 5.0 | 10.0 | 0.00 | 0.00 | 0.00 | 50 | 1012.7 |
| 20260830101024 | 80 | 186 | 3.0 | 7.0 | 0.00 | 0.00 | 0.00 | 49 | 1012.8 |
| 20260830100523 | 80 | 183 | 3.0 | 8.0 | 0.00 | 0.00 | 0.00 | 49 | 1012.9 |
| 20260830100025 | 80 | 196 | 3.0 | 9.0 | 0.00 | 0.00 | 0.00 | 48 | 1012.8 |
| 20260830095026 | 80 | 192 | 4.0 | 9.0 | 0.00 | 0.00 | 0.00 | 48 | 1012.7 |
| 20260830094530 | 80 | 189 | 4.0 | 9.0 | 0.00 | 0.00 | 0.00 | 47 | 1012.8 |
| 20260830094025 | 80 | 189 | 5.0 | 11.0 | 0.00 | 0.00 | 0.00 | 47 | 1012.8 |
| 20260830093524 | 81 | 196 | 6.0 | 15.0 | 0.00 | 0.00 | 0.00 | 47 | 1012.7 |
| 20260830093024 | 81 | 198 | 4.0 | 15.0 | 0.00 | 0.00 | 0.00 | 47 | 1012.7 |
| 20260830092522 | 81 | 200 | 5.0 | 11.0 | 0.00 | 0.00 | 0.00 | 46 | 1012.7 |
| 20260830092022 | 81 | 212 | 7.0 | 11.0 | 0.00 | 0.00 | 0.00 | 46 | 1012.7 |
| 20260830091522 | 81 | 168 | 5.0 | 14.0 | 0.00 | 0.00 | 0.00 | 46 | 1012.6 |
| 20260830091021 | 81 | 199 | 9.0 | 14.0 | 0.00 | 0.00 | 0.00 | 45 | 1012.6 |
| 20260830090519 | 82 | 162 | 6.0 | 15.0 | 0.00 | 0.00 | 0.00 | 45 | 1012.5 |
| 20260830090021 | 82 | 195 | 9.0 | 15.0 | 0.00 | 0.00 | 0.00 | 44 | 1012.5 |
| 20260830085017 | 82 | 189 | 7.0 | 14.0 | 0.00 | 0.00 | 0.00 | 44 | 1012.5 |
| 20260830084517 | 82 | 179 | 7.0 | 13.0 | 0.00 | 0.00 | 0.00 | 43 | 1012.4 |
| 20260830084017 | 82 | 192 | 6.0 | 13.0 | 0.00 | 0.00 | 0.00 | 43 | 1012.5 |
| 20260830083518 | 82 | 191 | 6.0 | 14.0 | 0.00 | 0.00 | 0.00 | 42 | 1012.5 |
| 20260830083015 | 82 | 185 | 7.0 | 16.0 | 0.00 | 0.00 | 0.00 | 42 | 1012.6 |
| 20260830082515 | 82 | 187 | 10.0 | 16.0 | 0.00 | 0.00 | 0.00 | 41 | 1012.6 |
| 20260830082012 | 82 | 215 | 8.0 | 14.0 | 0.00 | 0.00 | 0.00 | 41 | 1012.7 |
| 20260830081525 | 82 | 189 | 8.0 | 14.0 | 0.00 | 0.00 | 0.00 | 40 | 1012.7 |
| 20260830081011 | 82 | 196 | 6.0 | 14.0 | 0.00 | 0.00 | 0.00 | 40 | 1012.7 |
| 20260830080511 | 82 | 208 | 7.0 | 11.0 | 0.00 | 0.00 | 0.00 | 40 | 1012.8 |
| 20260830080011 | 82 | 179 | 6.0 | 11.0 | 0.00 | 0.00 | 0.00 | 40 | 1012.8 |
| 20260830075018 | 82 | 193 | 7.0 | 11.0 | 0.00 | 0.00 | 0.00 | 40 | 1012.8 |
| 20260830074523 | 82 | 191 | 4.0 | 9.0 | 0.00 | 0.00 | 0.00 | 39 | 1012.9 |
| 20260830074018 | 82 | 190 | 4.0 | 9.0 | 0.00 | 0.00 | 0.00 | 39 | 1012.9 |
| 20260830073518 | 82 | 170 | 4.0 | 9.0 | 0.00 | 0.00 | 0.00 | 39 | 1012.9 |
| 20260830073022 | 82 | 181 | 3.0 | 9.0 | 0.00 | 0.00 | 0.00 | 39 | 1012.9 |
| 20260830072518 | 82 | 158 | 3.0 | 7.0 | 0.00 | 0.00 | 0.00 | 39 | 1012.9 |
| 20260830072017 | 82 | 161 | 3.0 | 7.0 | 0.00 | 0.00 | 0.00 | 39 | 1012.9 |
| 20260830071517 | 82 | 166 | 4.0 | 6.0 | 0.00 | 0.00 | 0.00 | 39 | 1012.9 |
| 20260830071017 | 82 | 166 | 3.0 | 7.0 | 0.00 | 0.00 | 0.00 | 39 | 1012.9 |
| 20260830070516 | 82 | 185 | 3.0 | 7.0 | 0.00 | 0.00 | 0.00 | 39 | 1012.9 |
| 20260830070016 | 82 | 187 | 3.0 | 5.0 | 0.00 | 0.00 | 0.00 | 39 | 1013.0 |
| 20260830065010 | 82 | 189 | 2.0 | 5.0 | 0.00 | 0.00 | 0.00 | 39 | 1012.9 |
| 20260830064506 | 82 | 188 | 2.0 | 5.0 | 0.00 | 0.00 | 0.00 | 39 | 1013.0 |
| 20260830064005 | 83 | 187 | 3.0 | 6.0 | 0.00 | 0.00 | 0.00 | 38 | 1013.0 |
| 20260830063506 | 83 | 168 | 2.0 | 5.0 | 0.00 | 0.00 | 0.00 | 38 | 1013.0 |
| 20260830063010 | 83 | 181 | 2.0 | 6.0 | 0.00 | 0.00 | 0.00 | 38 | 1013.1 |
| 20260830062504 | 83 | 193 | 3.0 | 6.0 | 0.00 | 0.00 | 0.00 | 38 | 1013.1 |
| 20260830062006 | 83 | 169 | 3.0 | 9.0 | 0.00 | 0.00 | 0.00 | 38 | 1013.2 |
| 20260830061502 | 83 | 194 | 4.0 | 9.0 | 0.00 | 0.00 | 0.00 | 38 | 1013.1 |
| 20260830061002 | 84 | 169 | 3.0 | 6.0 | 0.00 | 0.00 | 0.00 | 37 | 1013.1 |
| 20260830060502 | 84 | 194 | 3.0 | 8.0 | 0.00 | 0.00 | 0.00 | 37 | 1013.1 |
| 20260830060101 | 84 | 186 | 4.0 | 8.0 | 0.00 | 0.00 | 0.00 | 37 | 1013.2 |
| 20260830055659 | 85 | 169 | 3.0 | 7.0 | 0.00 | 0.00 | 0.00 | 35 | 1013.2 |
| 20260830055058 | 85 | 164 | 3.0 | 9.0 | 0.00 | 0.00 | 0.00 | 35 | 1013.1 |
| 20260830054557 | 86 | 177 | 4.0 | 11.0 | 0.00 | 0.00 | 0.00 | 35 | 1013.0 |
| 20260830054056 | 86 | 196 | 5.0 | 10.0 | 0.00 | 0.00 | 0.00 | 35 | 1013.1 |
| 20260830053555 | 86 | 195 | 5.0 | 13.0 | 0.00 | 0.00 | 0.00 | 35 | 1013.1 |
| 20260830053057 | 86 | 199 | 8.0 | 13.0 | 0.00 | 0.00 | 0.00 | 34 | 1013.1 |
| 20260830052554 | 86 | 196 | 6.0 | 12.0 | 0.00 | 0.00 | 0.00 | 34 | 1013.1 |
| 20260830052052 | 86 | 192 | 5.0 | 11.0 | 0.00 | 0.00 | 0.00 | 34 | 1013.2 |
| 20260830051552 | 86 | 199 | 6.0 | 10.0 | 0.00 | 0.00 | 0.00 | 35 | 1013.2 |
| 20260830051051 | 85 | 189 | 4.0 | 8.0 | 0.00 | 0.00 | 0.00 | 35 | 1013.2 |
| 20260830050550 | 86 | 187 | 4.0 | 6.0 | 0.00 | 0.00 | 0.00 | 35 | 1013.2 |
| 20260830050049 | 86 | 189 | 3.0 | 5.0 | 0.00 | 0.00 | 0.00 | 34 | 1013.2 |
| 20260830045648 | 86 | 145 | 3.0 | 9.0 | 0.00 | 0.00 | 0.00 | 34 | 1013.1 |
| 20260830045051 | 87 | 191 | 3.0 | 9.0 | 0.00 | 0.00 | 0.00 | 33 | 1013.2 |
| 20260830044550 | 87 | 193 | 4.0 | 11.0 | 0.00 | 0.00 | 0.00 | 33 | 1013.2 |
| 20260830044048 | 87 | 193 | 6.0 | 11.0 | 0.00 | 0.00 | 0.00 | 33 | 1013.1 |
| 20260830043548 | 87 | 185 | 5.0 | 11.0 | 0.00 | 0.00 | 0.00 | 33 | 1013.1 |
| 20260830043048 | 87 | 188 | 7.0 | 10.0 | 0.00 | 0.00 | 0.00 | 32 | 1013.1 |
| 20260830042547 | 88 | 196 | 5.0 | 11.0 | 0.00 | 0.00 | 0.00 | 32 | 1013.1 |
| 20260830042047 | 88 | 199 | 6.0 | 12.0 | 0.00 | 0.00 | 0.00 | 32 | 1013.1 |
| 20260830041605 | 88 | 196 | 6.0 | 12.0 | 0.00 | 0.00 | 0.00 | 32 | 1013.1 |
| 20260830041146 | 88 | 189 | 6.0 | 12.0 | 0.00 | 0.00 | 0.00 | 31 | 1013.2 |
| 20260830040546 | 88 | 208 | 7.0 | 12.0 | 0.00 | 0.00 | 0.00 | 31 | 1013.1 |
| 20260830040047 | 88 | 191 | 6.0 | 11.0 | 0.00 | 0.00 | 0.00 | 31 | 1013.0 |
| 20260830035646 | 88 | 198 | 7.0 | 12.0 | 0.00 | 0.00 | 0.00 | 31 | 1013.0 |
| 20260830035052 | 89 | 187 | 8.0 | 12.0 | 0.00 | 0.00 | 0.00 | 31 | 1013.0 |
| 20260830034550 | 89 | 202 | 6.0 | 12.0 | 0.00 | 0.00 | 0.00 | 30 | 1013.0 |